Hors Challenge

La corrida de Wanze (3.98 km)

samedi 16 décembre 2017

Le classement original se trouve sur : http://ultratiming.be/
 
LA CORRIDE DE WANZE
DISTANCE : 3.98 km
samedi 16 décembre 2017
 
Place dos Nom Catégorie Pl/cat Temps temps/km Vitesse
1 1432 NURKOWSKI JONATHAN SEH 1 00:13:12 03:19 18.10
2 1421 GRAINDORGE VICTOR MIH 1 00:14:59 03:46 15.95
3 1420 FADDA ALEXIS XXX   00:15:04 03:47 15.86
4 1448 DESTEXHE SIMON SEH 2 00:15:14 03:50 15.68
5 1415 PIRARD THOMAS ESH 1 00:16:07 04:03 14.82
6 1431 PIRON THOMAS XXX   00:17:01 04:16 14.04
7 1414 LECLÈRE CORENTIN SEH 3 00:17:31 04:24 13.64
8 1447 GERARD ARNAUD SEH 4 00:18:53 04:45 12.65
9 1410 GRAINDORGE MAXENCE MIH 2 00:19:13 04:50 12.43
10 1442 GOLINVEAU RUDY V2H 1 00:20:13 05:05 11.82
11 1440 GOLINVEAU YOAN JUH 1 00:20:14 05:05 11.81
12 1444 BOSMANS GEERT V1H 1 00:20:22 05:07 11.73
13 1435 RULOT ZELIE MIF 1 00:20:28 05:08 11.67
14 1409 FORTHOMME LUCIE ESF 1 00:21:36 05:25 11.06
15 1439 AREND VIRGINIE SEF 1 00:21:38 05:26 11.04
16 1426 MAHY CHRISTIAN V1H 2 00:21:44 05:27 10.99
17 1405 DIEDEREN JUSTIN XXX   00:21:54 05:30 10.91
18 1422 LEFEBVRE TOM XXX   00:23:58 06:01 9.97
19 1428 PERPINIEN LOUISE XXX   00:24:00 06:02 9.96
20 1427 HATERT LUCIE XXX   00:24:12 06:05 9.87
21 1412 LANGE ANGÈLE SEF 2 00:24:19 06:06 9.83
22 1423 CHARLIER EMILIE SEH 5 00:24:22 06:07 9.81
23 1437 HATERT LAURENT V1H 3 00:24:23 06:07 9.80
24 1438 AREND DOMINIQUE V2H 2 00:25:20 06:22 9.43
25 1408 FONZÉ STÉPHANIE SEF 3 00:25:24 06:23 9.41
26 1433 DEWART CAROLINE SEF 4 00:25:27 06:23 9.39
27 1411 HELAS JOHANNE ESF 2 00:25:37 06:26 9.33
28 1413 LANGE SERGE V3H 1 00:25:39 06:26 9.31
29 1445 GRAMME LUCAS XXX   00:25:53 06:30 9.23
30 1449 NIRINA LYTIA SEF 5 00:25:55 06:31 9.22
31 1436 DEVAUX NATHALIE V2F 1 00:26:04 06:33 9.17
32 104 TRUILLET DEBORAH SEF 6 00:26:38 06:41 8.97
33 1434 ASPIOTIS MAGALI SEF 7 00:27:28 06:54 8.70
34 1429 OLIVIA DOROTHÉE SEF 8 00:27:42 06:57 8.63
35 1446 MERENNE FLORE V1F 1 00:27:59 07:02 8.54
36 1424 FERRIR FABIENNE V2F 2 00:29:18 07:21 8.15
37 1443 RENARD VALERIE V1F 2 00:33:21 08:23 7.16
38 1425 FERRIR LAETITIA SEF 9 00:33:26 08:24 7.15
39 1430 LAMBERT FREDDY V4H 1 00:33:26 08:24 7.15
40 1403 COLLIGNON CÉCILE V1F 3 00:34:25 08:39 6.94